Location: Chochol
(49.7771°N, 14.9780°E)
Time: 03:36:29
(UTC+00:00)

Resurs 01 Rocket - Pass Details

Date: 09 April 2020
Orbit: 634 x 644 km, 98.0° (Epoch: 04 June)

Event Time Altitude Azimuth Distance (km) Brightness Sun altitude
Exits shadow 20:55:15 - 235° (SW) 2,225 4.4 -26.0°
Reaches altitude 10° 20:56:14 10° 246° (WSW) 2,024 4.3 -26.1°
Maximum altitude 20:58:12 13° 273° (W) 1,849 4.4 -26.3°
Drops below altitude 10° 21:00:11 10° 300° (WNW) 2,034 5.0 -26.5°
Sets 21:03:40 0° 329° (NNW) 2,952 6.4 -26.8°
